Regional Weather Roundup
Issued by NWS

Home | Current Version | Previous Version | Text Only | Print | Product List | Glossary On
Versions: 1 2 3 4 5 6 7 8 9 10 11 12 13 14 15 16 17 18 19 20 21 22 23 24 25 26 27 28 29 30 31 32 33 34 35 36 37 38 39 40 41 42 43 44 45 46 47 48 49 50
490
ASUS45 KBOI 271610
RWRID

IDAHO REGIONAL WEATHER ROUNDUP
NATIONAL WEATHER SERVICE BOISE ID
900 AM MST MON FEB 27 2017

NOTE: "FAIR" INDICATES FEW OR NO CLOUDS BELOW 12000 FEET
WITH NO SIGNIFICANT WEATHER AND/OR OBSTRUCTIONS TO VISIBILITY

IDZ012-014-271700-
SOUTHWEST IDAHO


CITY           SKY/WX    TMP DP  RH WIND       PRES   REMARKS
BOISE          MOSUNNY   29  27  92 CALM      29.72R
CALDWELL       MOSUNNY   31  30  96 CALM      29.75R
MOUNTAIN HOME  PTSUNNY   28  28 100 W5        29.72R WCI  23
$$

IDZ016-017-271700-
SOUTHCENTRAL IDAHO


CITY           SKY/WX    TMP DP  RH WIND       PRES   REMARKS
BURLEY         HVY SNOW  27  24  89 CALM      29.63R VSB 1/4
JEROME           N/A    N/A N/A N/A MISG      29.65R
TWIN FALLS     LGT SNOW  25  22  88 SW20      29.66R FOG     WCI  11
$$

IDZ019>023-271700-
SOUTHEAST IDAHO


CITY           SKY/WX    TMP DP  RH WIND       PRES   REMARKS
IDAHO FALLS    FLURRIES  21  21 100 NW3       29.63R
POCATELLO      CLOUDY    24  21  88 E5        29.62F WCI  18
REXBURG        CLOUDY    21  20  96 W7        29.62R WCI  12
$$

IDZ006-010-011-018-031-032-271700-
CENTRAL IDAHO MOUNTAINS


CITY           SKY/WX    TMP DP  RH WIND       PRES   REMARKS
MCCALL         CLOUDY    21  16  81 CALM      29.55R
HAILEY         LGT SNOW  12   5  73 NW12      29.61R WCI  -2
STANLEY          N/A      8   3  80 E5        29.55R WCI   0
SALMON         CLOUDY    25  10  54 E6        29.60R WCI  18
CHALLIS        PTSUNNY   15   7  70 CALM      29.59R
$$

IDZ002-004-006-007-026-271700-
NORTHERN IDAHO


CITY           SKY/WX    TMP DP  RH WIND       PRES   REMARKS
LEWISTON       CLOUDY    30  28  92 S6        29.72R WCI  24
LOWELL           N/A     31  29  92 CALM      29.72R
COEUR D`ALENE  LGT SNOW  29  28  96 SW3       29.64R FOG
MULLAN PASS    LGT SNOW  18  13  80 VRB3      29.45R
$$




USA.gov is the U.S. government's official web portal to all federal, state and local government web resources and services.